Location: Albuquerque Trailhead
(34.7934°N, 106.3736°W)
Time: 05:44:10
(UTC+00:00)

BREEZE-M DEB (TANK) - Visible Passes

Search period start: 18 October 2021 00:00
Search period end: 28 October 2021 00:00
Orbit: 443 x 13219 km, 46.0° (Epoch: 16 October)

Date Brightness Start Highest point End Pass type
(mag) Time Alt. Az. Time Alt. Az. Time Alt. Az.
19 Oct 5.3 00:59:06 10° WNW 01:24:56 89° NNE 01:30:41 12° ESE visible
20 Oct 5.4 02:23:55 10° WNW 02:38:33 42° WSW 02:41:46 23° S visible
20 Oct 10.0 12:39:06 10° SE 13:46:22 23° E 14:30:10 10° ENE visible
21 Oct 6.7 03:48:28 10° W 03:49:56 10° W 03:51:12 10° WSW visible
22 Oct 5.7 00:11:29 10° WNW 00:43:48 81° NNE 00:50:35 10° ESE visible
23 Oct 5.6 01:39:06 10° WNW 01:58:06 54° SW 02:03:12 11° SSE visible
23 Oct 10.3 12:08:33 10° ESE 13:03:30 18° E 13:42:27 10° ENE visible
24 Oct 6.4 03:02:44 10° WNW 03:09:54 17° WSW 03:13:46 10° SW visible
24 Oct 9.6 12:51:11 10° SSE 14:17:51 37° ESE 15:11:25 10° ENE visible
26 Oct 5.6 00:53:21 10° WNW 01:17:26 67° SW 01:23:20 10° SE visible
26 Oct 10.6 11:44:27 10° ESE 12:21:11 14° E 12:50:15 10° ENE visible
27 Oct 6.3 02:18:04 10° WNW 02:29:48 25° WSW 02:34:38 10° SSW visible
27 Oct 9.9 12:13:13 10° SSE 13:33:43 32° E 14:27:10 10° ENE visible
